Flag for Norfolk Island Weather past 2 weeks in Kingston, Norfolk Island

Now
63 °F

Passing clouds.


Feels Like: 63 °F
Forecast: 61 / 66 °F
Wind: 8 mph from West

Location: Norfolk Island Airport

Current Time: Sep 19, 2014 at 5:22:33 AM

Latest Report: Sep 19, 2014 at 4:30 AM


Visibility: N/A

Pressure: 29.95 "Hg

Humidity: 88%

Dew point: 59 °F

Location of KingstonLocation

Historic Weather in Kingston — Graph

°F

Kingston temperature yesterday

Maximum temperature yesterday: 70 °F (at 11:00 AM)
Minimum temperature yesterday: 63 °F (at 12:00 AM)
Average temperature yesterday: 65 °F

Past Weeks' High & Low Weather Summary

 TemperatureHumidityPressure
High70 °F (Sep 18, 11:00 AM)100% (Sep 10, 12:00 AM)30.27 "Hg (Sep 10, 12:00 AM)
Low55 °F (Sep 15, 4:30 AM)43% (Sep 13, 3:00 PM)29.65 "Hg (Sep 4, 3:30 AM)
Average62 °F74%30.05 "Hg
* Reported Sep 4 3:30 AM — Sep 19 4:00 AM, Kingston, Weather by CustomWeather, © 2014

Note: Actual official high and low records may vary slightly from our data, if they occured in-between our weather recording intervals... More about our weather records

Advertising

Kingston weather history for previous 24 hours

 ConditionsComfort  
Time TempWeatherWind HumidityBarometerVisibility
4:00 AM
Sep 19
63 °FPassing clouds.12 mph88%29.95 "HgN/A
3:30 AM63 °FPassing clouds.12 mph83%29.95 "HgN/A
3:00 AM63 °FClear.10 mph83%29.95 "HgN/A
2:30 AM63 °FClear.10 mph83%29.95 "HgN/A
2:00 AM63 °FPassing clouds.8 mph83%29.95 "HgN/A
1:30 AM63 °FPassing clouds.7 mph83%29.95 "HgN/A
1:00 AM63 °FPassing clouds.8 mph83%29.95 "HgN/A
12:30 AM63 °FPassing clouds.7 mph83%29.95 "HgN/A
12:00 AM63 °FClear.8 mph83%29.98 "HgN/A
11:30 PM
Sep 18
63 °FClear.6 mph88%29.95 "Hg10 mi
11:00 PM63 °FClear.6 mph88%29.98 "Hg10 mi
10:30 PM63 °FPartly cloudy.9 mph88%29.98 "HgN/A
10:00 PM64 °FPassing clouds.12 mph83%30.01 "HgN/A
9:30 PM64 °FPassing clouds.13 mph88%30.01 "HgN/A
9:00 PM64 °FPartly cloudy.10 mph94%30.01 "HgN/A
8:30 PM64 °FPassing clouds.8 mph94%30.01 "HgN/A
8:00 PM63 °FPassing clouds.7 mph100%29.98 "Hg5 mi
7:30 PM63 °FPassing clouds.6 mph94%29.98 "HgN/A
7:00 PM63 °FPassing clouds.5 mph94%29.98 "HgN/A
6:30 PM63 °FPassing clouds.5 mph94%29.95 "HgN/A
6:00 PM64 °FPassing clouds.6 mph88%29.95 "HgN/A
5:30 PM66 °FPassing clouds.7 mph88%29.95 "HgN/A
5:00 PM66 °FPassing clouds.8 mph83%29.95 "HgN/A
4:30 PM68 °FScattered clouds.9 mph83%29.95 "HgN/A
4:00 PM68 °FBroken clouds.10 mph78%29.95 "HgN/A
3:30 PM70 °FSunny.9 mph69%29.92 "HgN/A
3:00 PM70 °FPassing clouds.8 mph69%29.92 "HgN/A
2:30 PM70 °FPartly sunny.9 mph78%29.95 "HgN/A
2:00 PM68 °FScattered clouds.8 mph83%29.95 "HgN/A
1:30 PM68 °FPartly sunny.7 mph83%29.95 "HgN/A
1:00 PM68 °FPartly sunny.8 mph83%29.98 "HgN/A
12:30 PM68 °FPartly sunny.6 mph83%29.98 "HgN/A
12:00 PM68 °FPartly sunny.8 mph83%30.01 "HgN/A
11:30 AM70 °FPassing clouds.7 mph69%30.01 "HgN/A
11:00 AM70 °FPassing clouds.6 mph73%30.04 "HgN/A
10:30 AM68 °FPassing clouds.7 mph78%30.04 "HgN/A
10:00 AM68 °FScattered clouds.7 mph78%30.04 "HgN/A
9:30 AM68 °FPassing clouds.7 mph78%30.04 "HgN/A
9:00 AM66 °FPartly sunny.8 mph88%30.04 "HgN/A
8:30 AM64 °FPartly sunny.7 mph88%30.07 "HgN/A
8:00 AM64 °FPartly sunny.7 mph88%30.07 "HgN/A
7:30 AM63 °FPassing clouds.7 mph94%30.04 "HgN/A
7:00 AM63 °FScattered clouds.7 mph94%30.04 "HgN/A
6:30 AM63 °FScattered clouds.7 mph94%30.04 "HgN/A
6:00 AM63 °FBroken clouds.6 mph94%30.04 "HgN/A
5:31 AM63 °FPartly cloudy.7 mph94%30.04 "HgN/A
Weather by CustomWeather, © 2014

See weather overviewHow to use our weather pages